Change the Weather History Date:

Thursday, July 11, 2013

  Actual Average Record
Temperature  
Mean Temperature 39 °F 41 °F  
Max Temperature 43 °F 47 °F 75 °F (1960)
Min Temperature 34 °F 35 °F 27 °F (1979)
Degree Days  
Heating Degree Days 26 24  
Month to date heating degree days 242 267  
Since 1 June heating degree days 1020 1147  
Since 1 July heating degree days 242 267  
Cooling Degree Days 0    
Month to date cooling degree days 0  
Year to date cooling degree days 0  
Since 1 June cooling degree days 0  
Moisture  
Dew Point 32 °F    
Average Humidity 0    
Maximum Humidity 0    
Minimum Humidity 0    
Precipitation  
Precipitation 0.00 in 0.03 in 1.03 in (1989)
Month to date precipitation 0.53 0.30  
Year to date precipitation 2.52 1.32  
Snow  
Snow 0.00 in 0.10 in T in (2010)
Month to date snowfall 0.0 0.1  
Since 1 June snowfall 0.3 0.8  
Since 1 July snowfall 0.0 0.1  
Snow Depth 0.00 in    
Sea Level Pressure  
Sea Level Pressure 30.35 in    
Wind  
Wind Speed 17 mph (ENE)    
Max Wind Speed 22 mph    
Max Gust Speed 25 mph    
Visibility 10 miles    
Events      
T = Trace of Precipitation, MM = Missing Value Source: NWS Daily Summary

Daily Weather History Graph

Daily Weather History Graph

Search for Another Location

Airport or City:

Trip Planner

Search our weather history database for the weather conditions in past years. The results will help you decide how hot, cold, wet, or windy it might be!

Date:

Astronomy

Dec. 31, 1969 Rise Set
Actual Time Sun does not rise Sun does not rise
Civil Twilight Sun does not rise Sun does not rise
Nautical Twilight Sun does not rise Sun does not rise
Astronomical Twilight Sun does not rise Sun does not rise
Moon 9:27 AM AKDT (7/11) 12:35 AM AKDT (7/11)
Length of Visible Light 24h 00m
Length of Day
24h 00m
Waxing Crescent, 11% of the Moon is Illuminated
Jul 11
Waxing Crescent
Jul 15
First Quarter
Jul 22
Full
Jul 29
Last Quarter
Aug 6
New

Hourly Weather History & Observations

Time (AKDT) Temp. Windchill Dew Point Humidity Pressure Visibility Wind Dir Wind Speed Gust Speed Precip Events Conditions
12:53 AM 35.1 °F 24.8 °F 30.9 °F 85% 30.35 in 10.0 mi ENE 17.3 mph - N/A   Mostly Cloudy
1:53 AM 34.0 °F 23.4 °F 30.0 °F 85% 30.37 in 10.0 mi ENE 17.3 mph - N/A   Mostly Cloudy
2:53 AM 35.1 °F 25.5 °F 30.9 °F 85% 30.36 in 10.0 mi ENE 15.0 mph - N/A   Mostly Cloudy
3:53 AM 35.1 °F 25.9 °F 30.0 °F 82% 30.38 in 10.0 mi ENE 13.8 mph - N/A   Mostly Cloudy
4:53 AM 34.0 °F 24.6 °F 30.0 °F 85% 30.38 in 10.0 mi ENE 13.8 mph - N/A   Mostly Cloudy
5:32 AM 33.8 °F 23.5 °F 30.2 °F 87% 30.37 in 10.0 mi ENE 16.1 mph - N/A   Mostly Cloudy
5:53 AM 35.1 °F 25.2 °F 30.9 °F 85% 30.37 in 10.0 mi East 16.1 mph - N/A   Mostly Cloudy
6:53 AM 37.0 °F 27.7 °F 32.0 °F 82% 30.37 in 10.0 mi ENE 16.1 mph - N/A   Mostly Cloudy
7:53 AM 37.9 °F 29.2 °F 32.0 °F 79% 30.37 in 10.0 mi ENE 15.0 mph - N/A   Scattered Clouds
8:53 AM 37.0 °F 27.4 °F 30.9 °F 79% 30.37 in 10.0 mi ENE 17.3 mph - N/A   Scattered Clouds
9:53 AM 37.9 °F 29.2 °F 32.0 °F 79% 30.37 in 10.0 mi East 15.0 mph - N/A   Mostly Cloudy
10:53 AM 39.9 °F 31.1 °F 33.1 °F 77% 30.37 in 10.0 mi ENE 17.3 mph - N/A   Mostly Cloudy
11:53 AM 39.0 °F 29.9 °F 32.0 °F 76% 30.37 in 10.0 mi East 17.3 mph - N/A   Scattered Clouds
12:53 PM 42.1 °F 33.6 °F 32.0 °F 67% 30.37 in 10.0 mi East 18.4 mph - N/A   Scattered Clouds
1:53 PM 41.0 °F 31.9 °F 32.0 °F 70% 30.36 in 10.0 mi ENE 19.6 mph - N/A   Scattered Clouds
2:53 PM 42.1 °F 33.3 °F 32.0 °F 67% 30.36 in 10.0 mi ENE 19.6 mph - N/A   Clear
3:53 PM 42.1 °F 33.6 °F 32.0 °F 67% 30.35 in 10.0 mi East 18.4 mph - N/A   Partly Cloudy
4:53 PM 42.1 °F 33.3 °F 33.1 °F 70% 30.35 in 10.0 mi East 19.6 mph - N/A   Clear
5:53 PM 42.1 °F 33.6 °F 33.1 °F 70% 30.35 in 10.0 mi ENE 18.4 mph - N/A   Clear
6:53 PM 42.1 °F 33.6 °F 34.0 °F 73% 30.34 in 10.0 mi East 18.4 mph - N/A   Clear
7:53 PM 39.9 °F 30.5 °F 32.0 °F 73% 30.33 in 10.0 mi ENE 19.6 mph - N/A   Clear
8:28 PM 37.4 °F 27.5 °F 32.0 °F 81% 30.33 in 10.0 mi East 18.4 mph - N/A   Partly Cloudy
8:41 PM 37.4 °F 27.2 °F 32.0 °F 81% 30.33 in 10.0 mi East 19.6 mph - N/A   Mostly Cloudy
8:53 PM 37.9 °F 27.6 °F 32.0 °F 79% 30.33 in 10.0 mi ENE 20.7 mph - N/A   Overcast
9:53 PM 37.0 °F 26.2 °F 32.0 °F 82% 30.33 in 10.0 mi ENE 21.9 mph - N/A   Mostly Cloudy
10:28 PM 37.4 °F 27.2 °F 32.0 °F 81% 30.32 in 10.0 mi ENE 19.6 mph - N/A   Scattered Clouds
10:53 PM 37.0 °F 27.4 °F 32.0 °F 82% 30.32 in 10.0 mi East 17.3 mph - N/A   Scattered Clouds
11:53 PM 37.0 °F 27.0 °F 32.0 °F 82% 30.33 in 10.0 mi East 18.4 mph - N/A   Scattered Clouds